Weather in Granovshchina

Russia / Irkutsk Oblast     52˚27′45″N   104˚17′33″E
temp.,
°C
wind,
m/s
gust,
m/s
humid.,
%
clouds,
%
prec.,
mm/h
press.,
hPa
HPBL,
m
17 january, sun
sun1723:00−16˚nw3996100 0.3 1032436
02:00−17˚wnw2697100 0.6 1031299
05:00−18˚nw1298100 0.3 102921
08:00−19˚nne1198100 0.4 102820
11:00−18˚e2296100 0.3 1026159
14:00−16˚ene3393100 0.5 1024250
17:00−18˚ne4696100 0.1 1024156
20:00−20˚ne4695100 0.2 1025102
18 january, mon
mon1823:00−22˚ene469458 0.0 102390
02:00−17˚ene469579 0.2 1021144
05:00−16˚ene3592100 0.1 101891
08:00−15˚e2389100 0.1 101854
11:00−13˚wsw1295100 0.4 1020218
14:00−12˚ssw129099 0.4 1018197
17:00−14˚e229343 0.0 101720
20:00−13˚ese239372 0.0 101633
19 january, tue
tue1923:00−14˚ese238929 0.0 101426
02:00−14˚ese338635 0.0 101235
05:00−13˚se349022 0.0 101051
08:00−10˚se339245 0.1 101161
11:00−10˚nw5108982 0.0 1016505
14:00−8˚nw467791 0.0 10171121
17:00−13˚nnw228374 0.0 102021
20:00−17˚ese118754 0.0 102320
20 january, wed
wed2023:00−18˚ese128781 0.0 102320
02:00−17˚e338489 0.0 102149
05:00−17˚e3483100 0.0 101960
08:00−17˚e2387100 0.0 101736
11:00−14˚nne118999 0.0 101647
14:00−11˚nne118999 0.0 1013208
17:00−12˚nne2394100 0.0 101349
20:00−14˚wnw3496100 0.1 101863
21 january, thu
thu2123:00−14˚nw4894100 0.5 1023302
02:00−18˚nw349399 0.5 102769
05:00−21˚wnw2291100 0.0 103021
08:00−25˚w119187 0.0 103120
11:00−22˚ese118723 0.0 102875
14:00−17˚ene358845 0.0 1023237
17:00−17˚ene349192 0.0 102187
20:00−17˚ene239295 0.0 102131